User: anonymous   Login
Location: Unspecified
(0.0000°N, 0.0000°E)
Time: 09:09:03
(UTC+01:00)
Language:

AO-40 - Orbit

View from above orbital plane
View from above orbital plane
View from above satellite
View from above satellite

Ground track
Ground track

The orbit data is extracted from the following two-line orbital elements,

1 26609U 00072B   17053.23033867 -.00000383  00000-0  00000+0 0  9994
2 26609   6.3456 246.0754 7957699  83.5069 351.5613  1.25588402 74897
Epoch (UTC): 22 February 2017 05:31:41
Eccentricity: 0.7957699
inclination: 6.3456°
perigee height: 1033 km
apogee height: 58787 km
right ascension of ascending node: 246.0754°
argument of perigee: 83.5069°
revolutions per day: 1.25588402
mean anomaly at epoch: 351.5613°
orbit number at epoch: 7489

The dashed part of the orbit path shows where the satellite is in the earth's shadow,  

DLR